TimeEST,TemperatureF,Dew PointF,Humidity,Sea Level PressureIn,VisibilityMPH,Wind Direction,Wind SpeedMPH,Gust SpeedMPH,PrecipitationIn,Events,Conditions,WindDirDegrees,DateUTC
12:53 AM,35.1,30.9,85,30.63,9.0,North,5.8,-,N/A,,Clear,10,2012-11-18 05:53:00
1:53 AM,37.0,30.9,79,30.63,9.0,North,4.6,-,N/A,,Clear,10,2012-11-18 06:53:00
2:53 AM,36.0,32.0,86,30.62,9.0,NNE,9.2,-,N/A,,Clear,20,2012-11-18 07:53:00
3:53 AM,36.0,33.1,89,30.63,8.0,NNE,6.9,-,N/A,,Clear,20,2012-11-18 08:53:00
4:53 AM,36.0,34.0,93,30.64,7.0,NNE,5.8,-,N/A,,Clear,20,2012-11-18 09:53:00
5:53 AM,37.9,36.0,93,30.64,7.0,NNE,6.9,-,N/A,,Clear,30,2012-11-18 10:53:00
6:53 AM,36.0,35.1,97,30.66,5.0,NNE,5.8,-,N/A,,Clear,20,2012-11-18 11:53:00
7:53 AM,39.0,36.0,89,30.66,6.0,NNE,6.9,-,N/A,,Clear,20,2012-11-18 12:53:00
8:53 AM,44.1,37.0,76,30.67,10.0,NE,9.2,-,N/A,,Clear,50,2012-11-18 13:53:00
9:53 AM,46.0,37.0,71,30.67,10.0,East,10.4,-,N/A,,Clear,80,2012-11-18 14:53:00
10:53 AM,48.0,37.9,68,30.66,10.0,ENE,9.2,-,N/A,,Clear,70,2012-11-18 15:53:00
11:42 AM,48.2,35.6,62,30.64,10.0,NNE,9.2,-,N/A,,Mostly Cloudy,20,2012-11-18 16:42:00
11:49 AM,48.2,35.6,62,30.63,10.0,NNE,5.8,-,N/A,,Scattered Clouds,20,2012-11-18 16:49:00
11:53 AM,50.0,37.0,61,30.63,10.0,NNE,9.2,-,N/A,,Scattered Clouds,30,2012-11-18 16:53:00
12:53 PM,48.9,37.0,64,30.62,10.0,NNE,9.2,-,N/A,,Clear,20,2012-11-18 17:53:00
1:53 PM,50.0,36.0,59,30.61,10.0,NE,8.1,-,N/A,,Clear,50,2012-11-18 18:53:00
2:53 PM,48.9,36.0,61,30.61,10.0,SE,3.5,-,N/A,,Mostly Cloudy,130,2012-11-18 19:53:00
3:53 PM,46.9,35.1,63,30.61,10.0,NE,4.6,-,N/A,,Scattered Clouds,50,2012-11-18 20:53:00
4:53 PM,45.0,34.0,65,30.61,10.0,ENE,4.6,-,N/A,,Clear,60,2012-11-18 21:53:00
5:53 PM,44.1,32.0,63,30.61,10.0,NE,3.5,-,N/A,,Clear,50,2012-11-18 22:53:00
6:53 PM,43.0,32.0,65,30.61,10.0,NNE,4.6,-,N/A,,Clear,20,2012-11-18 23:53:00
7:53 PM,41.0,33.1,73,30.60,10.0,NE,3.5,-,N/A,,Clear,40,2012-11-19 00:53:00
8:53 PM,41.0,33.1,73,30.60,10.0,ENE,3.5,-,N/A,,Clear,60,2012-11-19 01:53:00
9:53 PM,41.0,33.1,73,30.59,10.0,NE,4.6,-,N/A,,Clear,50,2012-11-19 02:53:00
10:53 PM,41.0,33.1,73,30.58,10.0,NE,5.8,-,N/A,,Clear,50,2012-11-19 03:53:00
11:53 PM,41.0,34.0,76,30.57,10.0,ENE,5.8,-,N/A,,Clear,60,2012-11-19 04:53:00